Time,TemperatureF,DewpointF,PressureIn,WindDirection,WindDirectionDegrees,WindSpeedMPH,WindSpeedGustMPH,Humidity,HourlyPrecipIn,Conditions,Clouds,dailyrainin,SoftwareType,DateUTC
2013-02-13 00:00:00,31.3,24.0,29.84,WNW,292,0.0,1.4,79,0.00,,,0.01,Rainwise IP-100,2013-02-13 05:00:00,
2013-02-13 00:05:00,31.1,24.0,29.84,WNW,292,0.0,1.2,79,0.00,,,0.00,Rainwise IP-100,2013-02-13 05:05:00,
2013-02-13 00:10:00,31.0,26.0,29.84,WNW,292,2.1,2.1,80,0.00,,,0.00,Rainwise IP-100,2013-02-13 05:10:00,
2013-02-13 00:15:00,31.0,26.0,29.84,WSW,247,1.2,2.8,80,0.00,,,0.00,Rainwise IP-100,2013-02-13 05:15:00,
2013-02-13 00:20:00,31.3,24.0,29.84,West,270,2.1,5.8,79,0.00,,,0.00,Rainwise IP-100,2013-02-13 05:20:00,
2013-02-13 00:25:00,31.5,26.0,29.84,SW,225,2.3,4.4,79,0.00,,,0.00,Rainwise IP-100,2013-02-13 05:25:00,
2013-02-13 00:30:00,31.4,24.0,29.84,WSW,247,0.0,5.8,79,0.00,,,0.00,Rainwise IP-100,2013-02-13 05:30:00,
2013-02-13 00:35:00,31.4,24.0,29.84,WSW,247,3.0,4.2,79,0.00,,,0.00,Rainwise IP-100,2013-02-13 05:35:00,
2013-02-13 00:40:00,31.6,26.0,29.85,WSW,247,2.8,3.7,79,0.00,,,0.00,Rainwise IP-100,2013-02-13 05:40:00,
2013-02-13 00:45:00,31.4,24.0,29.85,WSW,247,1.9,4.0,79,0.00,,,0.00,Rainwise IP-100,2013-02-13 05:45:00,
2013-02-13 00:50:00,31.0,24.0,29.86,WSW,247,0.0,5.4,79,0.00,,,0.00,Rainwise IP-100,2013-02-13 05:50:00,
2013-02-13 00:55:00,30.9,26.0,29.85,West,270,1.2,4.0,80,0.00,,,0.00,Rainwise IP-100,2013-02-13 05:55:00,
2013-02-13 00:57:00,30.7,26.0,29.85,WSW,247,2.1,3.0,80,0.00,,,0.00,Rainwise IP-100,2013-02-13 05:57:00,
2013-02-13 01:02:00,30.6,26.0,29.85,West,270,0.0,3.3,80,0.00,,,0.00,Rainwise IP-100,2013-02-13 06:02:00,
2013-02-13 01:07:00,30.7,26.0,29.85,West,270,2.3,4.4,81,0.00,,,0.00,Rainwise IP-100,2013-02-13 06:07:00,
2013-02-13 01:12:00,30.9,26.0,29.85,West,270,2.1,5.6,81,0.00,,,0.00,Rainwise IP-100,2013-02-13 06:12:00,
2013-02-13 01:17:00,31.2,26.0,29.85,West,270,1.6,4.2,80,0.00,,,0.00,Rainwise IP-100,2013-02-13 06:17:00,
2013-02-13 01:22:00,31.4,24.0,29.85,WNW,292,2.6,4.9,79,0.00,,,0.00,Rainwise IP-100,2013-02-13 06:22:00,
2013-02-13 01:25:00,31.6,26.0,29.84,WNW,292,2.8,5.6,79,0.00,,,0.00,Rainwise IP-100,2013-02-13 06:25:00,
2013-02-13 01:30:00,31.9,26.0,29.85,WSW,247,0.0,6.5,78,0.00,,,0.00,Rainwise IP-100,2013-02-13 06:30:00,
2013-02-13 01:35:00,32.0,26.0,29.85,WSW,247,3.0,7.7,76,0.00,,,0.00,Rainwise IP-100,2013-02-13 06:35:00,
2013-02-13 01:40:00,32.2,24.0,29.84,WSW,247,3.0,5.1,74,0.00,,,0.00,Rainwise IP-100,2013-02-13 06:40:00,
2013-02-13 01:45:00,32.4,24.0,29.85,NW,315,1.9,5.8,73,0.00,,,0.00,Rainwise IP-100,2013-02-13 06:45:00,
2013-02-13 01:50:00,32.5,24.0,29.85,West,270,1.9,7.5,71,0.00,,,0.00,Rainwise IP-100,2013-02-13 06:50:00,
2013-02-13 01:55:00,32.3,24.0,29.84,West,270,3.0,7.2,71,0.00,,,0.00,Rainwise IP-100,2013-02-13 06:55:00,
2013-02-13 02:00:00,32.2,24.0,29.85,North,360,3.7,6.8,70,0.00,,,0.00,Rainwise IP-100,2013-02-13 07:00:00,
2013-02-13 02:05:00,32.5,24.0,29.85,West,270,0.0,8.9,69,0.00,,,0.00,Rainwise IP-100,2013-02-13 07:05:00,
2013-02-13 02:10:00,32.5,24.0,29.86,WSW,247,2.3,5.4,69,0.00,,,0.00,Rainwise IP-100,2013-02-13 07:10:00,
2013-02-13 02:15:00,32.3,23.0,29.85,SW,225,3.3,4.7,69,0.00,,,0.00,Rainwise IP-100,2013-02-13 07:15:00,
2013-02-13 02:20:00,32.1,23.0,29.85,WSW,247,4.4,4.9,69,0.00,,,0.00,Rainwise IP-100,2013-02-13 07:20:00,
2013-02-13 02:25:00,32.0,23.0,29.85,WSW,247,3.3,6.3,69,0.00,,,0.00,Rainwise IP-100,2013-02-13 07:25:00,
2013-02-13 02:30:00,32.1,23.0,29.85,WSW,247,3.5,9.1,69,0.00,,,0.00,Rainwise IP-100,2013-02-13 07:30:00,
2013-02-13 02:35:00,32.0,23.0,29.86,WSW,247,3.0,5.8,69,0.00,,,0.00,Rainwise IP-100,2013-02-13 07:35:00,
2013-02-13 02:40:00,31.8,23.0,29.86,WSW,247,3.7,7.2,69,0.00,,,0.00,Rainwise IP-100,2013-02-13 07:40:00,
2013-02-13 02:45:00,31.6,24.0,29.86,WSW,247,6.1,6.8,70,0.00,,,0.00,Rainwise IP-100,2013-02-13 07:45:00,
2013-02-13 02:50:00,31.5,24.0,29.86,West,270,2.6,7.9,70,0.00,,,0.00,Rainwise IP-100,2013-02-13 07:50:00,
2013-02-13 02:55:00,31.4,23.0,29.87,WSW,247,4.4,6.5,70,0.00,,,0.00,Rainwise IP-100,2013-02-13 07:55:00,
2013-02-13 03:00:00,31.3,23.0,29.87,WSW,247,4.0,6.5,71,0.00,,,0.00,Rainwise IP-100,2013-02-13 08:00:00,
2013-02-13 03:05:00,31.2,23.0,29.87,WSW,247,2.3,6.5,72,0.00,,,0.00,Rainwise IP-100,2013-02-13 08:05:00,
2013-02-13 03:10:00,31.1,23.0,29.87,WSW,247,6.3,6.3,73,0.00,,,0.00,Rainwise IP-100,2013-02-13 08:10:00,
2013-02-13 03:15:00,31.1,24.0,29.87,WSW,247,3.0,7.7,74,0.00,,,0.00,Rainwise IP-100,2013-02-13 08:15:00,
2013-02-13 03:20:00,31.1,24.0,29.87,SW,225,2.8,6.5,76,0.00,,,0.00,Rainwise IP-100,2013-02-13 08:20:00,
2013-02-13 03:25:00,31.1,24.0,29.86,WSW,247,2.6,9.3,76,0.00,,,0.00,Rainwise IP-100,2013-02-13 08:25:00,
2013-02-13 03:30:00,31.2,24.0,29.87,WSW,247,5.4,7.2,77,0.00,,,0.00,Rainwise IP-100,2013-02-13 08:30:00,
2013-02-13 03:35:00,31.4,24.0,29.87,WSW,247,3.0,10.0,76,0.00,,,0.00,Rainwise IP-100,2013-02-13 08:35:00,
2013-02-13 03:40:00,31.5,26.0,29.87,West,270,4.4,10.0,76,0.00,,,0.00,Rainwise IP-100,2013-02-13 08:40:00,
2013-02-13 03:45:00,31.6,26.0,29.87,SW,225,7.7,7.9,75,0.00,,,0.00,Rainwise IP-100,2013-02-13 08:45:00,
2013-02-13 03:50:00,31.7,24.0,29.87,WSW,247,6.8,9.8,74,0.00,,,0.00,Rainwise IP-100,2013-02-13 08:50:00,
2013-02-13 03:55:00,31.7,24.0,29.87,West,270,6.3,8.6,74,0.00,,,0.00,Rainwise IP-100,2013-02-13 08:55:00,
2013-02-13 04:00:00,31.6,24.0,29.87,WSW,247,3.0,7.5,73,0.00,,,0.00,Rainwise IP-100,2013-02-13 09:00:00,
2013-02-13 04:05:00,31.6,24.0,29.87,West,270,2.6,7.2,73,0.00,,,0.00,Rainwise IP-100,2013-02-13 09:05:00,
2013-02-13 04:10:00,31.6,24.0,29.87,West,270,3.7,7.7,73,0.00,,,0.00,Rainwise IP-100,2013-02-13 09:10:00,
2013-02-13 04:15:00,31.7,24.0,29.87,WSW,247,4.4,8.6,72,0.00,,,0.00,Rainwise IP-100,2013-02-13 09:15:00,
2013-02-13 04:20:00,31.7,24.0,29.87,WSW,247,3.7,8.9,72,0.00,,,0.00,Rainwise IP-100,2013-02-13 09:20:00,
2013-02-13 04:25:00,31.6,24.0,29.87,WSW,247,3.5,8.2,72,0.00,,,0.00,Rainwise IP-100,2013-02-13 09:25:00,
2013-02-13 04:30:00,31.4,23.0,29.87,WNW,292,2.8,8.4,72,0.00,,,0.00,Rainwise IP-100,2013-02-13 09:30:00,
2013-02-13 04:35:00,31.2,23.0,29.87,West,270,3.0,7.0,73,0.00,,,0.00,Rainwise IP-100,2013-02-13 09:35:00,
2013-02-13 04:40:00,31.2,23.0,29.87,West,270,3.7,6.1,73,0.00,,,0.00,Rainwise IP-100,2013-02-13 09:40:00,
2013-02-13 04:45:00,31.1,23.0,29.86,WNW,292,4.9,8.9,73,0.00,,,0.00,Rainwise IP-100,2013-02-13 09:45:00,
2013-02-13 04:50:00,31.1,23.0,29.87,West,270,3.7,9.1,72,0.00,,,0.00,Rainwise IP-100,2013-02-13 09:50:00,
2013-02-13 04:55:00,31.3,23.0,29.87,West,270,4.7,7.9,72,0.00,,,0.00,Rainwise IP-100,2013-02-13 09:55:00,
2013-02-13 05:00:00,31.5,24.0,29.88,WSW,247,4.2,7.9,71,0.00,,,0.00,Rainwise IP-100,2013-02-13 10:00:00,
2013-02-13 05:05:00,31.5,24.0,29.87,NW,315,3.3,6.1,71,0.00,,,0.00,Rainwise IP-100,2013-02-13 10:05:00,
2013-02-13 05:10:00,31.4,23.0,29.87,WNW,292,4.7,5.4,71,0.00,,,0.00,Rainwise IP-100,2013-02-13 10:10:00,
2013-02-13 05:15:00,31.4,23.0,29.87,West,270,1.4,7.9,71,0.00,,,0.00,Rainwise IP-100,2013-02-13 10:15:00,
2013-02-13 05:20:00,31.4,23.0,29.87,WSW,247,4.0,4.9,71,0.00,,,0.00,Rainwise IP-100,2013-02-13 10:20:00,
2013-02-13 05:25:00,31.1,23.0,29.87,West,270,1.6,5.1,71,0.00,,,0.00,Rainwise IP-100,2013-02-13 10:25:00,
2013-02-13 05:30:00,30.9,23.0,29.86,WSW,247,1.9,3.7,71,0.00,,,0.00,Rainwise IP-100,2013-02-13 10:30:00,
2013-02-13 05:35:00,30.9,23.0,29.86,WNW,292,1.4,5.6,71,0.00,,,0.00,Rainwise IP-100,2013-02-13 10:35:00,
2013-02-13 05:40:00,31.0,23.0,29.86,NNW,337,0.0,6.3,71,0.00,,,0.00,Rainwise IP-100,2013-02-13 10:40:00,
2013-02-13 05:45:00,30.9,23.0,29.86,WNW,292,3.5,5.4,71,0.00,,,0.00,Rainwise IP-100,2013-02-13 10:45:00,
2013-02-13 05:50:00,30.9,23.0,29.85,NW,315,1.9,6.3,71,0.00,,,0.00,Rainwise IP-100,2013-02-13 10:50:00,
2013-02-13 05:55:00,30.8,23.0,29.85,SW,225,0.0,5.8,71,0.00,,,0.00,Rainwise IP-100,2013-02-13 10:55:00,
2013-02-13 06:00:00,30.6,23.0,29.85,NNW,337,0.0,8.2,71,0.00,,,0.00,Rainwise IP-100,2013-02-13 11:00:00,
2013-02-13 06:05:00,30.5,23.0,29.85,NW,315,2.3,4.9,72,0.00,,,0.00,Rainwise IP-100,2013-02-13 11:05:00,
2013-02-13 06:10:00,30.4,23.0,29.85,SW,225,1.9,4.0,72,0.00,,,0.00,Rainwise IP-100,2013-02-13 11:10:00,
2013-02-13 06:15:00,30.1,23.0,29.86,WNW,292,2.6,2.6,72,0.00,,,0.00,Rainwise IP-100,2013-02-13 11:15:00,
2013-02-13 06:20:00,29.9,23.0,29.86,WSW,247,0.0,3.7,72,0.00,,,0.00,Rainwise IP-100,2013-02-13 11:20:00,
2013-02-13 06:25:00,29.7,23.0,29.85,NW,315,0.0,2.3,73,0.00,,,0.00,Rainwise IP-100,2013-02-13 11:25:00,
2013-02-13 06:30:00,29.7,23.0,29.86,NW,315,0.0,2.8,73,0.00,,,0.00,Rainwise IP-100,2013-02-13 11:30:00,
2013-02-13 06:35:00,29.6,23.0,29.85,WSW,247,0.0,2.8,73,0.00,,,0.00,Rainwise IP-100,2013-02-13 11:35:00,
2013-02-13 06:40:00,29.4,23.0,29.86,WNW,292,0.0,2.8,73,0.00,,,0.00,Rainwise IP-100,2013-02-13 11:40:00,
2013-02-13 06:45:00,29.3,23.0,29.86,WNW,292,0.0,1.2,74,0.00,,,0.00,Rainwise IP-100,2013-02-13 11:45:00,
2013-02-13 06:50:00,29.1,23.0,29.86,WNW,292,0.0,2.1,74,0.00,,,0.00,Rainwise IP-100,2013-02-13 11:50:00,
2013-02-13 06:55:00,28.8,23.0,29.86,WSW,247,1.9,2.3,75,0.00,,,0.00,Rainwise IP-100,2013-02-13 11:55:00,
2013-02-13 07:00:00,28.5,23.0,29.86,WSW,247,0.0,1.9,75,0.00,,,0.00,Rainwise IP-100,2013-02-13 12:00:00,
2013-02-13 07:05:00,28.6,23.0,29.86,West,270,0.0,1.9,75,0.00,,,0.00,Rainwise IP-100,2013-02-13 12:05:00,
2013-02-13 07:10:00,28.9,23.0,29.86,WNW,292,0.0,1.2,76,0.00,,,0.00,Rainwise IP-100,2013-02-13 12:10:00,
2013-02-13 07:15:00,28.8,23.0,29.86,SSW,202,2.3,0.0,76,0.00,,,0.00,Rainwise IP-100,2013-02-13 12:15:00,
2013-02-13 07:20:00,28.7,23.0,29.86,South,180,1.4,2.6,76,0.00,,,0.00,Rainwise IP-100,2013-02-13 12:20:00,
2013-02-13 07:25:00,28.7,23.0,29.87,South,180,1.4,1.9,76,0.00,,,0.00,Rainwise IP-100,2013-02-13 12:25:00,
2013-02-13 07:30:00,28.6,23.0,29.88,South,180,1.9,3.0,77,0.00,,,0.00,Rainwise IP-100,2013-02-13 12:30:00,
2013-02-13 07:35:00,28.6,23.0,29.88,South,180,2.6,2.8,77,0.00,,,0.00,Rainwise IP-100,2013-02-13 12:35:00,
2013-02-13 07:40:00,28.7,23.0,29.87,SSW,202,1.6,3.3,77,0.00,,,0.00,Rainwise IP-100,2013-02-13 12:40:00,
2013-02-13 07:45:00,29.0,23.0,29.88,SSW,202,2.3,2.8,77,0.00,,,0.00,Rainwise IP-100,2013-02-13 12:45:00,
2013-02-13 07:50:00,29.6,24.0,29.88,SSW,202,1.6,3.7,77,0.00,,,0.00,Rainwise IP-100,2013-02-13 12:50:00,
2013-02-13 07:55:00,30.2,24.0,29.88,SSW,202,2.1,2.3,76,0.00,,,0.00,Rainwise IP-100,2013-02-13 12:55:00,
2013-02-13 08:00:00,31.1,24.0,29.88,SW,225,1.4,2.3,75,0.00,,,0.00,Rainwise IP-100,2013-02-13 13:00:00,
2013-02-13 08:05:00,31.9,24.0,29.88,SW,225,2.1,3.3,74,0.00,,,0.00,Rainwise IP-100,2013-02-13 13:05:00,
2013-02-13 08:10:00,32.6,26.0,29.87,WSW,247,1.9,3.0,73,0.00,,,0.00,Rainwise IP-100,2013-02-13 13:10:00,
2013-02-13 08:15:00,33.3,26.0,29.88,WSW,247,1.9,4.4,72,0.00,,,0.00,Rainwise IP-100,2013-02-13 13:15:00,
2013-02-13 08:20:00,33.9,26.0,29.88,SW,225,3.3,3.3,71,0.00,,,0.00,Rainwise IP-100,2013-02-13 13:20:00,
2013-02-13 08:25:00,34.5,26.0,29.88,WSW,247,3.7,4.4,70,0.00,,,0.00,Rainwise IP-100,2013-02-13 13:25:00,
2013-02-13 08:30:00,34.7,26.0,29.88,SW,225,4.0,6.8,69,0.00,,,0.00,Rainwise IP-100,2013-02-13 13:30:00,
2013-02-13 08:35:00,34.9,26.0,29.89,WSW,247,3.7,6.1,68,0.00,,,0.00,Rainwise IP-100,2013-02-13 13:35:00,
2013-02-13 08:40:00,35.3,24.0,29.89,WSW,247,5.6,6.3,67,0.00,,,0.00,Rainwise IP-100,2013-02-13 13:40:00,
2013-02-13 08:45:00,35.5,26.0,29.88,SW,225,4.9,7.5,66,0.00,,,0.00,Rainwise IP-100,2013-02-13 13:45:00,
2013-02-13 08:50:00,35.7,26.0,29.89,SW,225,4.9,6.1,66,0.00,,,0.00,Rainwise IP-100,2013-02-13 13:50:00,
2013-02-13 08:55:00,35.9,26.0,29.88,WSW,247,4.2,8.6,65,0.00,,,0.00,Rainwise IP-100,2013-02-13 13:55:00,
2013-02-13 09:00:00,36.1,24.0,29.89,WSW,247,2.8,7.7,63,0.00,,,0.00,Rainwise IP-100,2013-02-13 14:00:00,
2013-02-13 09:05:00,36.3,24.0,29.88,WSW,247,3.5,7.5,62,0.00,,,0.00,Rainwise IP-100,2013-02-13 14:05:00,
2013-02-13 09:10:00,36.8,26.0,29.88,WNW,292,3.0,5.1,62,0.00,,,0.00,Rainwise IP-100,2013-02-13 14:10:00,
2013-02-13 09:15:00,37.1,24.0,29.88,SW,225,2.3,8.2,61,0.00,,,0.00,Rainwise IP-100,2013-02-13 14:15:00,
2013-02-13 09:20:00,37.1,24.0,29.88,NNW,337,2.8,9.1,60,0.00,,,0.00,Rainwise IP-100,2013-02-13 14:20:00,
2013-02-13 09:25:00,37.3,24.0,29.88,WNW,292,0.0,7.2,59,0.00,,,0.00,Rainwise IP-100,2013-02-13 14:25:00,
2013-02-13 09:30:00,37.6,24.0,29.87,SW,225,7.5,9.1,58,0.00,,,0.00,Rainwise IP-100,2013-02-13 14:30:00,
2013-02-13 09:35:00,37.6,24.0,29.87,WSW,247,3.7,9.6,58,0.00,,,0.00,Rainwise IP-100,2013-02-13 14:35:00,
2013-02-13 09:40:00,37.4,24.0,29.86,WSW,247,4.2,8.6,58,0.00,,,0.00,Rainwise IP-100,2013-02-13 14:40:00,
2013-02-13 09:45:00,37.4,24.0,29.86,SW,225,4.0,7.2,58,0.00,,,0.00,Rainwise IP-100,2013-02-13 14:45:00,
2013-02-13 09:50:00,38.0,24.0,29.86,NNW,337,0.0,5.8,57,0.00,,,0.00,Rainwise IP-100,2013-02-13 14:50:00,
2013-02-13 09:55:00,38.6,26.0,29.86,NNW,337,1.4,8.2,57,0.00,,,0.00,Rainwise IP-100,2013-02-13 14:55:00,
2013-02-13 10:00:00,38.6,24.0,29.86,NNW,337,6.8,7.5,56,0.00,,,0.00,Rainwise IP-100,2013-02-13 15:00:00,
2013-02-13 10:05:00,38.8,24.0,29.85,North,360,5.8,8.9,55,0.00,,,0.00,Rainwise IP-100,2013-02-13 15:05:00,
2013-02-13 10:10:00,38.8,24.0,29.85,NNW,337,3.3,8.4,55,0.00,,,0.00,Rainwise IP-100,2013-02-13 15:10:00,
2013-02-13 10:15:00,38.4,24.0,29.84,NW,315,2.6,6.5,55,0.00,,,0.00,Rainwise IP-100,2013-02-13 15:15:00,
2013-02-13 10:20:00,37.9,24.0,29.84,WSW,247,3.7,6.8,55,0.00,,,0.00,Rainwise IP-100,2013-02-13 15:20:00,
2013-02-13 10:25:00,37.9,24.0,29.84,NNW,337,0.0,6.3,56,0.00,,,0.00,Rainwise IP-100,2013-02-13 15:25:00,
2013-02-13 10:30:00,38.3,24.0,29.84,NNW,337,5.6,8.2,56,0.00,,,0.00,Rainwise IP-100,2013-02-13 15:30:00,
2013-02-13 10:35:00,38.5,24.0,29.84,West,270,0.0,7.5,56,0.00,,,0.00,Rainwise IP-100,2013-02-13 15:35:00,
2013-02-13 10:40:00,39.0,24.0,29.85,WSW,247,0.0,9.1,55,0.00,,,0.00,Rainwise IP-100,2013-02-13 15:40:00,
2013-02-13 10:45:00,39.2,24.0,29.85,SSW,202,5.8,7.7,55,0.00,,,0.00,Rainwise IP-100,2013-02-13 15:45:00,
2013-02-13 10:50:00,39.0,24.0,29.85,North,360,0.0,6.8,55,0.00,,,0.00,Rainwise IP-100,2013-02-13 15:50:00,
2013-02-13 10:55:00,39.2,24.0,29.85,NNW,337,2.3,5.4,54,0.00,,,0.00,Rainwise IP-100,2013-02-13 15:55:00,
2013-02-13 11:00:00,39.3,24.0,29.84,SW,225,7.7,7.7,54,0.00,,,0.00,Rainwise IP-100,2013-02-13 16:00:00,
2013-02-13 11:05:00,39.0,24.0,29.84,NNW,337,2.3,7.9,54,0.00,,,0.00,Rainwise IP-100,2013-02-13 16:05:00,
2013-02-13 11:10:00,39.1,24.0,29.84,WNW,292,1.9,4.0,54,0.00,,,0.00,Rainwise IP-100,2013-02-13 16:10:00,
2013-02-13 11:15:00,39.4,24.0,29.84,WSW,247,4.4,5.6,54,0.00,,,0.00,Rainwise IP-100,2013-02-13 16:15:00,
2013-02-13 11:20:00,39.5,24.0,29.84,SSE,157,1.4,5.6,53,0.00,,,0.00,Rainwise IP-100,2013-02-13 16:20:00,
2013-02-13 11:25:00,40.0,24.0,29.84,North,360,4.2,4.2,53,0.00,,,0.00,Rainwise IP-100,2013-02-13 16:25:00,
2013-02-13 11:30:00,40.1,24.0,29.84,WNW,292,3.5,6.1,53,0.00,,,0.00,Rainwise IP-100,2013-02-13 16:30:00,
2013-02-13 11:35:00,39.8,24.0,29.83,West,270,0.0,5.4,53,0.00,,,0.00,Rainwise IP-100,2013-02-13 16:35:00,
2013-02-13 11:40:00,40.2,24.0,29.83,WNW,292,1.2,4.4,52,0.00,,,0.00,Rainwise IP-100,2013-02-13 16:40:00,
2013-02-13 11:45:00,40.8,26.0,29.83,WSW,247,5.6,5.6,52,0.00,,,0.00,Rainwise IP-100,2013-02-13 16:45:00,
2013-02-13 11:50:00,40.6,26.0,29.83,SSW,202,4.9,5.6,52,0.00,,,0.00,Rainwise IP-100,2013-02-13 16:50:00,
2013-02-13 11:55:00,40.3,24.0,29.83,SW,225,2.1,7.0,52,0.00,,,0.00,Rainwise IP-100,2013-02-13 16:55:00,
2013-02-13 12:00:00,40.2,24.0,29.84,SSW,202,3.0,5.6,53,0.00,,,0.00,Rainwise IP-100,2013-02-13 17:00:00,
2013-02-13 12:05:00,40.3,24.0,29.84,South,180,5.1,7.0,53,0.00,,,0.00,Rainwise IP-100,2013-02-13 17:05:00,
2013-02-13 12:10:00,40.4,24.0,29.84,SSW,202,7.0,8.9,53,0.00,,,0.00,Rainwise IP-100,2013-02-13 17:10:00,
2013-02-13 12:15:00,40.1,26.0,29.84,SSW,202,5.1,12.1,54,0.00,,,0.00,Rainwise IP-100,2013-02-13 17:15:00,
2013-02-13 12:20:00,39.6,26.0,29.85,SW,225,9.8,12.6,55,0.00,,,0.00,Rainwise IP-100,2013-02-13 17:20:00,
2013-02-13 12:25:00,39.0,24.0,29.84,SSW,202,10.5,13.3,56,0.00,,,0.00,Rainwise IP-100,2013-02-13 17:25:00,
2013-02-13 12:30:00,38.5,26.0,29.84,South,180,10.7,14.2,57,0.00,,,0.00,Rainwise IP-100,2013-02-13 17:30:00,
2013-02-13 12:35:00,38.1,24.0,29.83,SSW,202,11.0,15.4,58,0.00,,,0.00,Rainwise IP-100,2013-02-13 17:35:00,
2013-02-13 12:40:00,37.9,26.0,29.83,SSW,202,7.7,14.5,59,0.00,,,0.00,Rainwise IP-100,2013-02-13 17:40:00,
2013-02-13 12:45:00,37.8,26.0,29.83,SW,225,4.4,14.0,60,0.00,,,0.00,Rainwise IP-100,2013-02-13 17:45:00,
2013-02-13 12:50:00,37.9,26.0,29.83,SW,225,7.2,10.7,60,0.00,,,0.00,Rainwise IP-100,2013-02-13 17:50:00,
2013-02-13 12:55:00,38.1,26.0,29.83,South,180,7.0,13.3,59,0.00,,,0.00,Rainwise IP-100,2013-02-13 17:55:00,
2013-02-13 13:00:00,38.2,26.0,29.83,SSW,202,1.4,11.2,59,0.00,,,0.00,Rainwise IP-100,2013-02-13 18:00:00,
2013-02-13 13:05:00,38.3,26.0,29.83,WSW,247,6.8,11.4,59,0.00,,,0.00,Rainwise IP-100,2013-02-13 18:05:00,
2013-02-13 13:10:00,38.2,26.0,29.83,SSW,202,5.6,11.7,60,0.00,,,0.00,Rainwise IP-100,2013-02-13 18:10:00,
2013-02-13 13:15:00,38.2,26.0,29.82,SW,225,4.9,12.1,60,0.00,,,0.00,Rainwise IP-100,2013-02-13 18:15:00,
2013-02-13 13:20:00,38.3,26.0,29.82,South,180,10.3,11.7,61,0.00,,,0.00,Rainwise IP-100,2013-02-13 18:20:00,
2013-02-13 13:25:00,38.2,26.0,29.82,SSW,202,8.4,12.8,61,0.00,,,0.00,Rainwise IP-100,2013-02-13 18:25:00,
2013-02-13 13:30:00,38.2,26.0,29.82,SSW,202,7.5,11.7,61,0.00,,,0.00,Rainwise IP-100,2013-02-13 18:30:00,
2013-02-13 13:35:00,38.2,26.0,29.82,SSW,202,9.3,14.2,62,0.00,,,0.00,Rainwise IP-100,2013-02-13 18:35:00,
2013-02-13 13:40:00,38.2,26.0,29.82,SW,225,8.2,13.3,61,0.00,,,0.00,Rainwise IP-100,2013-02-13 18:40:00,
2013-02-13 13:46:00,38.2,26.0,29.81,SW,225,4.0,9.6,61,0.00,,,0.00,Rainwise IP-100,2013-02-13 18:46:00,
2013-02-13 13:51:00,38.3,26.0,29.81,SSW,202,3.5,9.6,61,0.00,,,0.00,Rainwise IP-100,2013-02-13 18:51:00,
2013-02-13 13:56:00,38.5,28.0,29.80,WSW,247,4.0,8.4,61,0.00,,,0.00,Rainwise IP-100,2013-02-13 18:56:00,
2013-02-13 14:01:00,38.7,28.0,29.80,SSW,202,7.7,7.7,62,0.00,,,0.00,Rainwise IP-100,2013-02-13 19:01:00,
2013-02-13 14:06:00,38.8,28.0,29.81,SSW,202,7.9,10.7,61,0.00,,,0.00,Rainwise IP-100,2013-02-13 19:06:00,
2013-02-13 14:11:00,38.7,28.0,29.80,SSW,202,7.7,9.8,61,0.00,,,0.00,Rainwise IP-100,2013-02-13 19:11:00,
2013-02-13 14:16:00,38.7,28.0,29.80,SSW,202,6.3,9.3,62,0.00,,,0.00,Rainwise IP-100,2013-02-13 19:16:00,
2013-02-13 14:21:00,38.6,28.0,29.80,SW,225,5.4,9.1,62,0.00,,,0.00,Rainwise IP-100,2013-02-13 19:21:00,
2013-02-13 14:26:00,38.7,28.0,29.80,SSW,202,4.4,9.6,62,0.00,,,0.00,Rainwise IP-100,2013-02-13 19:26:00,
2013-02-13 14:31:00,38.7,28.0,29.80,SW,225,4.0,10.5,63,0.00,,,0.00,Rainwise IP-100,2013-02-13 19:31:00,
2013-02-13 14:36:00,38.6,28.0,29.80,SW,225,7.5,10.5,63,0.00,,,0.00,Rainwise IP-100,2013-02-13 19:36:00,
2013-02-13 14:41:00,38.8,28.0,29.78,South,180,2.3,9.3,63,0.00,,,0.00,Rainwise IP-100,2013-02-13 19:41:00,
2013-02-13 14:46:00,38.7,28.0,29.78,SSW,202,7.5,9.6,64,0.00,,,0.00,Rainwise IP-100,2013-02-13 19:46:00,
2013-02-13 14:51:00,38.7,28.0,29.78,SW,225,6.3,9.3,63,0.00,,,0.00,Rainwise IP-100,2013-02-13 19:51:00,
2013-02-13 14:56:00,38.8,28.0,29.78,SSW,202,2.8,7.7,63,0.00,,,0.00,Rainwise IP-100,2013-02-13 19:56:00,
2013-02-13 15:01:00,38.8,28.0,29.77,South,180,4.7,9.6,62,0.00,,,0.00,Rainwise IP-100,2013-02-13 20:01:00,
2013-02-13 15:06:00,39.0,28.0,29.77,SW,225,4.9,9.8,61,0.00,,,0.00,Rainwise IP-100,2013-02-13 20:06:00,
2013-02-13 15:11:00,39.0,26.0,29.77,SSW,202,5.4,9.6,60,0.00,,,0.00,Rainwise IP-100,2013-02-13 20:11:00,
2013-02-13 15:16:00,38.7,28.0,29.76,SSW,202,4.9,7.0,61,0.00,,,0.00,Rainwise IP-100,2013-02-13 20:16:00,
2013-02-13 15:21:00,38.8,28.0,29.76,South,180,5.1,8.4,61,0.00,,,0.00,Rainwise IP-100,2013-02-13 20:21:00,
2013-02-13 15:26:00,38.8,26.0,29.76,SW,225,4.7,6.5,60,0.00,,,0.00,Rainwise IP-100,2013-02-13 20:26:00,
2013-02-13 15:31:00,38.5,26.0,29.76,SW,225,3.7,8.4,60,0.00,,,0.00,Rainwise IP-100,2013-02-13 20:31:00,
2013-02-13 15:36:00,38.3,26.0,29.77,SW,225,5.6,8.2,61,0.00,,,0.00,Rainwise IP-100,2013-02-13 20:36:00,
2013-02-13 15:41:00,38.1,26.0,29.76,SSW,202,3.5,7.7,61,0.00,,,0.00,Rainwise IP-100,2013-02-13 20:41:00,
2013-02-13 15:46:00,38.3,26.0,29.76,WSW,247,4.2,6.5,61,0.00,,,0.00,Rainwise IP-100,2013-02-13 20:46:00,
2013-02-13 15:51:00,38.2,26.0,29.76,WSW,247,2.6,6.1,61,0.00,,,0.00,Rainwise IP-100,2013-02-13 20:51:00,
2013-02-13 15:56:00,38.3,26.0,29.75,SSW,202,7.7,7.7,61,0.00,,,0.00,Rainwise IP-100,2013-02-13 20:56:00,
2013-02-13 16:01:00,38.7,28.0,29.76,SW,225,4.0,8.2,61,0.00,,,0.00,Rainwise IP-100,2013-02-13 21:01:00,
2013-02-13 16:06:00,38.8,28.0,29.76,SSW,202,4.2,7.0,61,0.00,,,0.00,Rainwise IP-100,2013-02-13 21:06:00,
2013-02-13 16:11:00,38.6,28.0,29.76,SW,225,6.3,7.9,62,0.00,,,0.00,Rainwise IP-100,2013-02-13 21:11:00,
2013-02-13 16:16:00,38.4,26.0,29.76,SW,225,4.9,7.2,62,0.00,,,0.00,Rainwise IP-100,2013-02-13 21:16:00,
2013-02-13 16:21:00,38.2,26.0,29.75,SW,225,3.5,6.8,62,0.00,,,0.00,Rainwise IP-100,2013-02-13 21:21:00,
2013-02-13 16:26:00,38.1,26.0,29.76,SW,225,3.0,6.5,63,0.00,,,0.00,Rainwise IP-100,2013-02-13 21:26:00,
2013-02-13 16:31:00,37.8,26.0,29.76,SSW,202,2.8,7.9,63,0.00,,,0.00,Rainwise IP-100,2013-02-13 21:31:00,
2013-02-13 16:36:00,37.4,26.0,29.76,South,180,6.5,7.5,64,0.00,,,0.00,Rainwise IP-100,2013-02-13 21:36:00,
2013-02-13 16:41:00,36.8,26.0,29.76,SSW,202,3.7,7.0,65,0.00,,,0.00,Rainwise IP-100,2013-02-13 21:41:00,
2013-02-13 16:46:00,36.3,26.0,29.76,SSW,202,2.6,7.0,66,0.00,,,0.00,Rainwise IP-100,2013-02-13 21:46:00,
2013-02-13 16:51:00,35.9,26.0,29.76,SSW,202,3.3,5.1,68,0.00,,,0.00,Rainwise IP-100,2013-02-13 21:51:00,
2013-02-13 16:56:00,35.5,26.0,29.77,SSW,202,3.5,5.1,69,0.00,,,0.00,Rainwise IP-100,2013-02-13 21:56:00,
2013-02-13 17:01:00,35.1,26.0,29.76,SW,225,0.0,4.0,70,0.00,,,0.00,Rainwise IP-100,2013-02-13 22:01:00,
2013-02-13 17:06:00,34.8,26.0,29.76,SSW,202,1.4,3.5,72,0.00,,,0.00,Rainwise IP-100,2013-02-13 22:06:00,
2013-02-13 17:11:00,34.5,28.0,29.76,South,180,4.7,4.7,73,0.00,,,0.00,Rainwise IP-100,2013-02-13 22:11:00,
2013-02-13 17:16:00,34.2,28.0,29.76,SSW,202,3.0,4.9,75,0.00,,,0.00,Rainwise IP-100,2013-02-13 22:16:00,
2013-02-13 17:21:00,34.0,28.0,29.76,SSW,202,2.8,3.7,76,0.00,,,0.00,Rainwise IP-100,2013-02-13 22:21:00,
2013-02-13 17:26:00,33.9,28.0,29.75,SSE,157,1.6,4.0,76,0.00,,,0.00,Rainwise IP-100,2013-02-13 22:26:00,
2013-02-13 17:31:00,33.8,28.0,29.75,South,180,1.9,3.3,77,0.00,,,0.00,Rainwise IP-100,2013-02-13 22:31:00,
2013-02-13 17:36:00,33.7,28.0,29.75,SSW,202,2.3,4.0,77,0.00,,,0.00,Rainwise IP-100,2013-02-13 22:36:00,
2013-02-13 17:41:00,33.6,29.0,29.75,SSW,202,3.3,5.4,78,0.00,,,0.00,Rainwise IP-100,2013-02-13 22:41:00,
2013-02-13 17:46:00,33.6,29.0,29.75,SSW,202,2.3,5.4,78,0.00,,,0.00,Rainwise IP-100,2013-02-13 22:46:00,
2013-02-13 17:51:00,33.6,29.0,29.74,SSW,202,0.0,3.3,79,0.00,,,0.00,Rainwise IP-100,2013-02-13 22:51:00,
2013-02-13 17:56:00,33.6,29.0,29.74,SSW,202,0.0,1.6,79,0.00,,,0.00,Rainwise IP-100,2013-02-13 22:56:00,
2013-02-13 18:01:00,33.5,29.0,29.74,SSW,202,0.0,1.6,79,0.00,,,0.00,Rainwise IP-100,2013-02-13 23:01:00,
2013-02-13 18:06:00,33.2,28.0,29.74,SSW,202,0.0,1.2,79,0.00,,,0.00,Rainwise IP-100,2013-02-13 23:06:00,
2013-02-13 18:11:00,32.9,28.0,29.73,SSW,202,0.0,0.0,80,0.00,,,0.00,Rainwise IP-100,2013-02-13 23:11:00,
2013-02-13 18:16:00,32.4,26.0,29.74,SSW,202,0.0,0.0,80,0.00,,,0.00,Rainwise IP-100,2013-02-13 23:16:00,
2013-02-13 18:21:00,32.0,28.0,29.74,SSW,202,0.0,0.0,81,0.00,,,0.00,Rainwise IP-100,2013-02-13 23:21:00,
2013-02-13 18:26:00,31.7,28.0,29.73,SSW,202,0.0,2.3,81,0.00,,,0.00,Rainwise IP-100,2013-02-13 23:26:00,
2013-02-13 18:31:00,31.7,28.0,29.73,SSW,202,0.0,0.0,82,0.00,,,0.00,Rainwise IP-100,2013-02-13 23:31:00,
2013-02-13 18:36:00,31.6,28.0,29.73,SSW,202,0.0,0.0,83,0.00,,,0.00,Rainwise IP-100,2013-02-13 23:36:00,
2013-02-13 18:41:00,31.2,26.0,29.73,SSW,202,0.0,0.0,83,0.00,,,0.00,Rainwise IP-100,2013-02-13 23:41:00,
2013-02-13 18:46:00,30.7,26.0,29.73,SSW,202,0.0,0.0,83,0.00,,,0.00,Rainwise IP-100,2013-02-13 23:46:00,
2013-02-13 18:51:00,30.3,26.0,29.72,SSW,202,0.0,0.0,84,0.00,,,0.00,Rainwise IP-100,2013-02-13 23:51:00,
2013-02-13 18:56:00,30.1,26.0,29.73,SSW,202,0.0,0.0,85,0.00,,,0.00,Rainwise IP-100,2013-02-13 23:56:00,
2013-02-13 19:01:00,30.0,28.0,29.73,SSW,202,1.2,2.1,86,0.00,,,0.00,Rainwise IP-100,2013-02-14 00:01:00,
2013-02-13 19:06:00,30.2,28.0,29.74,SSW,202,2.1,2.8,86,0.00,,,0.00,Rainwise IP-100,2013-02-14 00:06:00,
2013-02-13 19:11:00,30.6,28.0,29.73,South,180,0.0,4.2,87,0.00,,,0.00,Rainwise IP-100,2013-02-14 00:11:00,
2013-02-13 19:16:00,31.0,28.0,29.72,SSE,157,0.0,2.1,86,0.00,,,0.00,Rainwise IP-100,2013-02-14 00:16:00,
2013-02-13 19:21:00,31.3,28.0,29.72,SSE,157,0.0,0.0,86,0.00,,,0.00,Rainwise IP-100,2013-02-14 00:21:00,
2013-02-13 19:26:00,31.0,28.0,29.72,SSE,157,0.0,0.0,86,0.00,,,0.00,Rainwise IP-100,2013-02-14 00:26:00,
2013-02-13 19:31:00,30.7,28.0,29.73,SSE,157,1.9,2.3,86,0.00,,,0.00,Rainwise IP-100,2013-02-14 00:31:00,
2013-02-13 19:36:00,30.9,28.0,29.72,SSE,157,0.0,3.5,87,0.00,,,0.00,Rainwise IP-100,2013-02-14 00:36:00,
2013-02-13 19:41:00,31.6,29.0,29.72,SSE,157,0.0,1.4,88,0.00,,,0.00,Rainwise IP-100,2013-02-14 00:41:00,
2013-02-13 19:46:00,31.5,29.0,29.72,East,90,0.0,0.0,87,0.00,,,0.00,Rainwise IP-100,2013-02-14 00:46:00,
2013-02-13 19:51:00,31.0,28.0,29.72,East,90,0.0,0.0,87,0.00,,,0.00,Rainwise IP-100,2013-02-14 00:51:00,
2013-02-13 19:56:00,30.5,28.0,29.72,East,90,0.0,0.0,87,0.00,,,0.00,Rainwise IP-100,2013-02-14 00:56:00,
2013-02-13 20:01:00,30.1,28.0,29.72,East,90,0.0,0.0,87,0.00,,,0.00,Rainwise IP-100,2013-02-14 01:01:00,
2013-02-13 20:06:00,29.7,28.0,29.71,NNE,22,2.6,3.0,88,0.00,,,0.00,Rainwise IP-100,2013-02-14 01:06:00,
2013-02-13 20:11:00,29.6,28.0,29.71,NNE,22,0.0,2.8,89,0.00,,,0.00,Rainwise IP-100,2013-02-14 01:11:00,
2013-02-13 20:16:00,29.6,28.0,29.70,NNE,22,0.0,0.0,89,0.00,,,0.00,Rainwise IP-100,2013-02-14 01:16:00,
2013-02-13 20:21:00,29.6,28.0,29.71,NNE,22,0.0,0.0,90,0.00,,,0.00,Rainwise IP-100,2013-02-14 01:21:00,
2013-02-13 20:26:00,29.6,28.0,29.71,NNE,22,2.1,2.3,90,0.00,,,0.00,Rainwise IP-100,2013-02-14 01:26:00,
2013-02-13 20:31:00,29.7,28.0,29.71,NNE,22,0.0,2.3,91,0.00,,,0.00,Rainwise IP-100,2013-02-14 01:31:00,
2013-02-13 20:36:00,30.0,28.0,29.71,NNE,22,0.0,0.0,91,0.00,,,0.00,Rainwise IP-100,2013-02-14 01:36:00,
2013-02-13 20:41:00,30.1,28.0,29.71,NNE,22,0.0,0.0,91,0.00,,,0.00,Rainwise IP-100,2013-02-14 01:41:00,
2013-02-13 20:46:00,29.9,28.0,29.71,NNE,22,0.0,0.0,91,0.00,,,0.00,Rainwise IP-100,2013-02-14 01:46:00,
2013-02-13 20:51:00,29.7,28.0,29.71,NNE,22,0.0,0.0,91,0.00,,,0.00,Rainwise IP-100,2013-02-14 01:51:00,
2013-02-13 20:56:00,29.6,28.0,29.71,NNE,22,0.0,0.0,91,0.00,,,0.00,Rainwise IP-100,2013-02-14 01:56:00,
2013-02-13 21:01:00,29.7,28.0,29.71,NNE,22,0.0,0.0,91,0.00,,,0.00,Rainwise IP-100,2013-02-14 02:01:00,
2013-02-13 21:06:00,29.8,28.0,29.71,NNE,22,0.0,0.0,91,0.00,,,0.00,Rainwise IP-100,2013-02-14 02:06:00,
2013-02-13 21:11:00,29.9,29.0,29.72,NNE,22,0.0,0.0,92,0.00,,,0.00,Rainwise IP-100,2013-02-14 02:11:00,
2013-02-13 21:16:00,30.2,29.0,29.71,NNE,22,0.0,0.0,92,0.00,,,0.00,Rainwise IP-100,2013-02-14 02:16:00,
2013-02-13 21:21:00,30.3,28.0,29.72,NNE,22,0.0,0.0,91,0.00,,,0.00,Rainwise IP-100,2013-02-14 02:21:00,
2013-02-13 21:26:00,30.3,28.0,29.72,NNE,22,0.0,0.0,91,0.00,,,0.00,Rainwise IP-100,2013-02-14 02:26:00,
2013-02-13 21:31:00,30.5,28.0,29.72,NNE,22,2.3,2.3,91,0.00,,,0.00,Rainwise IP-100,2013-02-14 02:31:00,
2013-02-13 21:36:00,30.6,28.0,29.71,NNE,22,1.4,2.6,91,0.00,,,0.00,Rainwise IP-100,2013-02-14 02:36:00,
2013-02-13 21:41:00,30.6,28.0,29.71,NNE,22,0.0,2.3,91,0.00,,,0.00,Rainwise IP-100,2013-02-14 02:41:00,
2013-02-13 21:46:00,30.5,28.0,29.71,NNE,22,0.0,1.6,91,0.00,,,0.00,Rainwise IP-100,2013-02-14 02:46:00,
2013-02-13 21:51:00,30.4,28.0,29.71,NNE,22,0.0,0.0,91,0.00,,,0.00,Rainwise IP-100,2013-02-14 02:51:00,
2013-02-13 21:56:00,30.5,29.0,29.70,NNE,22,0.0,0.0,92,0.00,,,0.00,Rainwise IP-100,2013-02-14 02:56:00,
2013-02-13 22:01:00,30.4,29.0,29.71,NNE,22,0.0,0.0,92,0.00,,,0.00,Rainwise IP-100,2013-02-14 03:01:00,
2013-02-13 22:06:00,30.4,29.0,29.70,NNE,22,0.0,2.1,92,0.00,,,0.00,Rainwise IP-100,2013-02-14 03:06:00,
2013-02-13 22:11:00,30.4,29.0,29.70,NNE,22,1.4,0.0,92,0.00,,,0.00,Rainwise IP-100,2013-02-14 03:11:00,
2013-02-13 22:16:00,30.3,29.0,29.70,NNE,22,2.3,2.6,92,0.00,,,0.00,Rainwise IP-100,2013-02-14 03:16:00,
2013-02-13 22:21:00,30.5,29.0,29.69,North,360,3.3,4.2,93,0.00,,,0.00,Rainwise IP-100,2013-02-14 03:21:00,
2013-02-13 22:26:00,30.8,29.0,29.67,North,360,1.6,4.4,92,0.00,,,0.00,Rainwise IP-100,2013-02-14 03:26:00,
2013-02-13 22:31:00,30.9,29.0,29.68,North,360,0.0,3.0,92,0.00,,,0.00,Rainwise IP-100,2013-02-14 03:31:00,
2013-02-13 22:36:00,30.9,29.0,29.67,North,360,0.0,0.0,93,0.00,,,0.00,Rainwise IP-100,2013-02-14 03:36:00,
2013-02-13 22:41:00,31.0,29.0,29.65,North,360,3.0,3.0,93,0.00,,,0.00,Rainwise IP-100,2013-02-14 03:41:00,
2013-02-13 22:46:00,31.0,29.0,29.66,NNE,22,0.0,3.7,93,0.00,,,0.00,Rainwise IP-100,2013-02-14 03:46:00,
2013-02-13 22:51:00,31.0,29.0,29.66,NNE,22,1.9,2.3,93,0.00,,,0.00,Rainwise IP-100,2013-02-14 03:51:00,
2013-02-13 22:56:00,31.1,29.0,29.65,East,90,0.0,3.0,93,0.00,,,0.00,Rainwise IP-100,2013-02-14 03:56:00,
2013-02-13 23:01:00,31.3,29.0,29.65,East,90,0.0,1.2,92,0.00,,,0.00,Rainwise IP-100,2013-02-14 04:01:00,
2013-02-13 23:06:00,31.4,29.0,29.67,East,90,0.0,0.0,92,0.00,,,0.00,Rainwise IP-100,2013-02-14 04:06:00,
2013-02-13 23:11:00,31.4,29.0,29.67,East,90,0.0,1.6,92,0.00,,,0.00,Rainwise IP-100,2013-02-14 04:11:00,
2013-02-13 23:16:00,31.6,29.0,29.67,East,90,0.0,1.4,91,0.00,,,0.00,Rainwise IP-100,2013-02-14 04:16:00,
2013-02-13 23:21:00,31.5,29.0,29.67,East,90,0.0,0.0,91,0.00,,,0.00,Rainwise IP-100,2013-02-14 04:21:00,
2013-02-13 23:26:00,31.5,29.0,29.67,East,90,0.0,0.0,91,0.00,,,0.00,Rainwise IP-100,2013-02-14 04:26:00,
2013-02-13 23:31:00,31.4,28.0,29.68,East,90,0.0,0.0,91,0.00,,,0.00,Rainwise IP-100,2013-02-14 04:31:00,
2013-02-13 23:36:00,31.3,28.0,29.68,East,90,0.0,0.0,91,0.00,,,0.00,Rainwise IP-100,2013-02-14 04:36:00,
2013-02-13 23:41:00,31.3,28.0,29.68,East,90,0.0,0.0,91,0.00,,,0.00,Rainwise IP-100,2013-02-14 04:41:00,
2013-02-13 23:46:00,31.3,28.0,29.69,East,90,0.0,0.0,91,0.00,,,0.00,Rainwise IP-100,2013-02-14 04:46:00,
2013-02-13 23:51:00,31.2,28.0,29.69,East,90,0.0,0.0,91,0.00,,,0.00,Rainwise IP-100,2013-02-14 04:51:00,
2013-02-13 23:56:00,31.1,28.0,29.69,East,90,0.0,0.0,91,0.00,,,0.00,Rainwise IP-100,2013-02-14 04:56:00,